Location: Dompnac
(44.5644°N, 4.1026°E)
Time: 05:50:16
(UTC+00:00)

NOSS 2-2 (E) - Pass Details

Date: 23 January 2021
Orbit: 462 x 1744 km, 63.3° (Epoch: 05 March)

Event Time Altitude Azimuth Distance (km) Brightness Sun altitude
Rises 19:43:08 0° 326° (NNW) 3,104 7.6 -32.4°
Reaches altitude 10° 19:45:18 10° 334° (NNW) 2,332 6.8 -32.8°
Enters shadow 19:47:06 22° 345° (NNW) 1,777 6.0 -33.1°
